Theta_e
315 315 316 317 318 317 316 316 317 316 316 316 317 316 316 315 315 315 315 315 316 315 314 311 310 310 310 310 310 310 311 311 311 314 316 318 319 319 318 317 316 315 312 310
315 316 316 316 316 314 315 316 316 316 316 317 316 315 314 314 315 315 315 315 315 313 312 310 307 306 305 305 306 306 307 309 309 311 313 314 316 316 316 315 315 314 311 309
317 318 316 314 315 315 316 316 316 316 316 315 314 315 316 316 317 316 315 314 311 311 309 307 305 304 303 303 304 304 305 306 306 307 309 311 312 309 312 312 312 311 310 308
316 313 312 313 314 314 315 315 314 314 314 315 313 315 316 317 318 314 312 310 310 308 307 305 305 304 303 302 302 302 302 303 303 304 306 308 309 308 308 308 309 308 307 307
315 314 313 313 313 313 314 312 312 312 312 314 315 316 318 317 317 314 311 309 308 306 305 304 303 303 302 301 301 300 300 300 301 302 303 304 305 305 306 306 305 305 305 304
315 310 311 313 312 312 311 311 313 314 314 319 319 319 319 318 315 310 309 308 307 306 305 303 302 301 300 300 299 299 299 298 298 299 300 301 302 302 303 304 303 303 302 302
318 315 315 310 313 312 310 313 321 326 322 324 316 322 318 317 313 311 310 308 306 305 304 303 302 301 299 299 298 298 297 296 297 297 297 298 298 299 300 301 301 302 302 301
318 317 314 309 312 316 314 318 327 331 328 326 321 323 321 317 310 309 308 307 305 304 303 302 301 299 298 298 297 297 296 295 295 295 295 296 296 297 297 298 298 299 300 300
319 318 313 308 309 314 319 322 320 323 323 324 319 317 318 319 313 310 309 306 304 302 301 300 299 299 297 296 296 295 294 294 293 293 294 294 294 294 294 295 296 297 297 297
318 322 319 317 310 312 312 311 316 316 320 321 318 320 319 314 313 311 307 304 301 300 299 299 298 298 296 294 294 293 293 291 291 291 292 292 292 292 293 293 293 293 294 294
317 318 317 315 315 314 311 312 312 315 320 321 322 320 316 314 312 310 304 301 300 298 296 296 296 297 295 292 292 291 291 290 289 289 290 290 290 290 290 290 291 291 292 292
315 316 318 314 312 312 315 316 316 318 319 319 320 320 310 309 305 303 301 300 298 297 295 293 293 293 295 292 290 289 289 289 288 288 288 289 289 288 288 287 287 288 289 290
314 315 316 315 309 313 316 315 315 316 315 317 319 317 309 304 303 301 300 298 296 295 292 291 291 291 291 291 289 288 287 287 287 286 286 287 287 287 286 285 286 285 285 286
311 312 314 313 308 309 312 312 312 314 316 315 316 314 310 309 309 304 298 297 296 293 291 291 290 290 290 290 289 288 287 286 286 285 285 286 286 286 285 283 284 284 283 284
308 309 308 308 308 308 309 309 309 310 310 311 311 310 307 306 304 299 294 293 294 294 291 290 290 290 289 289 289 288 287 287 286 285 285 285 284 284 283 282 282 283 283 283
304 304 304 304 303 303 303 303 304 305 305 305 304 303 303 299 295 296 295 292 291 291 292 290 290 289 289 289 289 288 287 286 285 285 285 284 283 283 282 282 281 283 282 282
301 301 302 302 300 300 301 301 301 301 302 301 301 301 296 296 293 292 292 291 291 291 291 291 290 289 289 289 288 289 287 286 285 284 284 283 283 282 282 281 280 281 281 281
298 300 300 300 299 299 298 297 296 295 296 297 299 295 293 291 291 291 292 292 291 290 290 291 290 290 289 288 288 287 285 285 284 284 283 283 282 282 281 280 280 279 279 280
295 296 298 298 298 297 297 295 294 294 295 298 298 292 291 291 290 291 292 291 291 290 290 290 290 289 288 287 286 285 284 283 283 283 282 283 282 281 280 279 278 278 278 278
292 294 297 296 295 294 293 293 292 292 293 297 294 291 292 291 290 291 291 291 291 290 290 290 290 288 287 285 284 283 282 282 281 281 281 280 280 280 279 278 277 277 276 276
293 294 296 296 296 295 295 293 291 293 294 296 293 292 291 291 291 291 291 290 290 290 290 289 287 286 284 283 281 280 280 280 279 278 278 278 278 278 277 277 276 275 274 274
291 292 293 293 293 293 292 291 292 293 293 294 292 292 292 291 291 290 290 290 290 288 287 284 283 282 281 279 278 277 277 276 275 274 273 273 273 273 273 273 273 272 272 272
291 291 292 293 292 292 291 292 293 293 293 292 292 292 291 291 290 289 289 288 287 284 282 280 278 277 276 275 274 273 272 271 270 269 268 267 268 268 268 269 270 270 270 271
291 292 292 292 291 292 291 292 291 292 292 292 292 291 290 289 289 286 285 284 282 280 278 276 275 274 273 272 271 269 268 267 266 265 264 264 264 265 265 265 266 267 268 268
293 292 292 292 291 291 291 291 291 291 291 291 288 287 287 285 284 283 281 280 278 276 275 273 272 271 270 269 268 266 265 264 264 263 263 263 263 264 264 264 264 265 265 266
292 292 291 292 291 291 291 291 291 291 291 290 287 284 282 280 280 278 277 276 274 273 271 270 269 268 267 266 265 265 264 263 262 262 263 263 263 263 263 264 264 264 265 266
Wind_Speed
8 8 10 16 16 20 22 23 25 21 19 23 23 24 20 21 22 25 20 17 12 9 14 20 20 20 18 14 10 4 5 11 14 17 18 20 21 20 22 23 22 23 23 27
4 12 16 16 17 13 18 22 24 22 18 16 18 24 25 25 24 20 17 12 5 9 13 18 23 25 25 22 19 15 8 3 7 11 11 14 15 18 19 19 21 23 24 26
15 15 15 12 15 18 20 19 22 25 20 19 19 20 14 8 14 10 8 10 17 14 14 15 20 25 24 25 25 21 16 11 5 3 5 6 9 5 12 15 18 19 22 25
9 2 4 10 14 17 19 16 15 14 12 11 5 9 15 19 13 11 14 16 15 15 14 14 16 21 23 22 21 21 20 17 12 5 4 5 7 9 11 13 14 16 20 23
2 5 5 8 9 11 15 5 8 9 11 15 13 9 4 5 7 16 13 13 14 14 14 15 17 20 22 24 26 24 22 21 18 13 7 5 6 10 11 9 8 12 15 22
13 2 4 4 8 8 5 10 14 16 8 8 13 13 6 3 8 13 12 12 12 12 13 14 18 21 23 23 21 22 22 23 23 18 13 8 8 10 11 9 9 10 13 16
11 12 9 4 7 8 7 8 6 5 7 7 5 7 10 11 7 9 10 10 10 11 11 13 14 17 20 22 21 19 22 27 24 23 20 17 12 9 10 10 10 10 12 13
10 12 6 8 6 4 6 2 3 5 8 15 15 9 10 3 12 12 10 10 10 9 9 10 10 12 13 15 17 19 26 25 24 22 20 19 17 15 12 11 10 12 13 13
8 6 3 4 1 3 4 5 5 4 8 5 9 21 19 14 12 10 10 9 8 8 8 9 11 12 13 15 16 19 21 21 20 19 19 18 17 16 16 15 13 12 13 15
2 8 4 3 2 8 5 4 4 5 6 14 14 18 13 9 5 7 6 7 9 9 10 9 11 12 13 15 16 19 21 18 18 18 17 16 17 20 19 16 15 14 14 16
4 4 6 5 6 12 3 4 5 4 5 10 13 8 5 10 5 8 5 4 6 7 8 8 9 11 13 16 18 18 18 18 19 17 17 16 17 17 17 20 22 23 19 15
7 4 9 22 21 19 14 16 16 9 8 8 11 12 8 9 8 3 2 3 4 4 6 7 10 12 13 15 16 19 17 15 15 15 14 14 14 16 18 19 21 23 22 21
5 3 5 7 13 1 5 5 7 12 4 15 15 11 7 8 6 3 6 3 2 3 5 7 9 12 13 14 15 15 17 17 18 18 17 16 16 15 16 19 20 23 24 24
1 7 11 13 18 20 20 22 18 11 6 13 10 15 21 18 10 5 4 5 4 2 3 6 6 9 10 11 12 13 13 13 15 16 16 16 16 16 17 20 21 23 26 26
4 9 14 17 19 17 15 17 23 22 19 18 21 22 23 20 15 6 3 4 4 5 5 5 5 7 11 13 14 14 15 15 15 16 18 18 19 19 21 24 25 25 26 27
5 9 11 15 19 20 22 25 27 23 23 25 24 26 22 9 2 4 3 4 7 9 7 5 5 7 9 11 13 13 17 19 21 21 19 20 23 23 23 23 22 20 23 23
6 6 6 16 17 16 14 22 21 25 25 24 22 17 7 6 3 3 6 9 10 11 12 9 8 9 9 11 12 14 16 17 19 24 30 31 27 28 30 30 29 24 24 24
13 13 9 12 10 17 11 7 12 14 16 15 9 2 4 1 6 8 8 9 11 13 13 12 13 16 14 14 14 14 15 17 19 21 25 28 28 29 27 26 25 27 27 27
17 14 8 7 13 18 22 17 15 10 16 2 5 6 2 8 11 13 10 10 12 13 13 15 18 16 16 16 15 15 18 20 21 23 25 25 25 27 28 31 34 31 27 30
6 13 11 6 10 12 11 6 1 3 11 7 4 4 6 10 9 12 14 12 12 16 16 17 16 13 16 17 17 17 20 22 23 26 27 28 29 29 29 30 31 32 32 34
3 4 13 13 13 12 8 1 2 8 8 8 5 7 11 11 11 14 13 13 14 15 16 15 14 15 17 18 20 22 23 22 25 26 29 30 31 32 32 33 33 33 35 35
7 6 7 6 9 13 3 5 8 7 4 5 11 13 13 14 12 12 13 11 10 13 14 14 16 18 21 20 20 23 25 27 28 29 31 32 32 33 35 36 38 37 35 36
8 10 7 7 7 8 9 9 9 11 12 17 18 16 13 13 13 11 10 9 10 12 13 14 14 19 22 19 20 24 29 29 31 31 32 33 33 34 34 35 36 35 33 32
16 19 14 16 18 23 19 20 19 19 18 17 16 12 9 11 7 4 5 6 7 11 13 14 17 19 23 21 23 25 28 29 30 31 31 31 31 32 32 33 32 33 32 31
12 10 14 15 21 18 20 19 19 19 18 15 2 3 5 3 4 4 5 6 10 13 14 15 18 20 24 26 27 26 28 28 29 29 29 30 29 29 31 31 31 32 34 35
16 19 13 15 20 16 19 17 14 15 16 12 5 6 5 2 4 4 5 8 10 12 15 18 19 21 24 26 29 29 28 28 30 31 29 29 31 31 31 31 32 33 38 39
Wind_Direction
192 224 224 253 255 261 277 284 282 283 288 291 289 291 291 291 284 269 281 286 294 320 45 38 29 24 19 16 3 336 259 235 227 221 221 217 219 220 224 224 221 218 212 210
200 247 262 279 281 288 281 280 281 284 281 290 295 290 295 280 275 280 286 299 341 65 51 40 31 31 27 26 20 16 8 280 233 236 232 235 233 232 230 228 225 219 216 210
261 282 306 290 276 271 266 275 284 291 305 300 289 286 266 268 275 305 0 86 75 63 52 42 37 34 32 32 30 33 36 31 9 276 255 235 244 283 244 235 233 225 220 217
260 360 319 293 275 272 282 294 309 306 311 297 18 288 301 277 270 94 72 72 60 52 56 52 45 38 33 30 32 46 52 52 48 39 327 293 258 259 252 252 239 229 223 220
100 203 225 263 256 272 279 347 316 299 278 284 273 254 277 264 250 114 92 64 58 56 41 39 37 37 36 34 33 37 42 46 45 46 33 348 306 290 286 277 248 243 232 229
257 117 227 234 298 244 315 286 276 261 273 261 266 244 286 42 33 100 94 77 66 51 46 46 37 32 32 33 35 37 46 46 40 35 34 26 346 321 305 289 277 256 241 238
286 234 214 211 255 211 231 257 291 268 214 264 91 331 256 302 97 126 121 97 81 69 55 41 41 35 25 23 27 31 39 41 36 38 31 16 3 342 321 310 298 279 269 253
280 290 181 159 222 312 194 305 221 274 284 301 311 270 268 98 109 108 106 99 88 67 56 53 41 39 36 31 25 25 35 32 26 28 27 26 21 4 337 328 319 307 294 278
304 258 86 232 341 282 117 218 225 250 250 265 254 267 270 239 136 129 116 97 77 66 55 40 36 31 28 25 28 31 34 30 27 22 17 17 16 18 8 349 337 324 307 300
50 294 276 249 260 224 217 341 233 177 263 266 262 269 257 166 175 130 74 58 39 29 36 37 32 30 28 26 23 28 32 25 19 18 17 11 11 8 6 8 7 351 327 311
131 181 271 254 226 264 225 239 219 292 239 258 268 254 234 354 11 124 89 41 27 21 23 21 22 28 25 19 22 22 20 17 14 11 6 7 10 10 7 1 356 356 350 337
234 244 260 272 283 284 278 266 261 243 232 222 254 264 3 49 91 61 3 356 13 10 22 21 15 16 23 19 10 12 10 9 5 2 0 2 4 6 5 357 354 353 346 345
26 271 286 283 278 266 239 348 337 315 278 263 275 280 71 137 149 213 248 255 284 327 7 26 22 15 7 9 8 359 352 350 354 352 352 353 355 358 359 352 349 352 349 345
304 250 245 259 275 300 292 296 284 253 266 289 268 287 287 286 294 232 230 227 241 248 334 347 356 355 351 348 348 345 340 338 334 336 337 340 338 339 340 344 343 341 347 346
263 258 272 275 278 283 283 280 275 269 271 268 279 285 286 296 302 324 347 338 292 263 261 281 318 328 326 328 326 328 329 328 325 325 326 324 321 325 323 329 333 333 333 334
203 267 289 277 275 275 273 268 266 272 275 272 274 274 279 348 35 263 279 301 310 311 271 283 306 305 303 298 302 305 311 314 316 318 312 312 315 315 316 318 319 311 314 317
259 262 276 268 283 291 272 257 263 262 266 272 276 298 339 323 306 319 320 309 313 320 310 281 290 301 308 297 289 280 289 293 300 304 309 310 309 309 311 313 314 313 309 309
251 251 257 271 291 261 264 304 307 291 290 292 296 102 111 7 315 313 299 288 298 315 312 302 294 298 305 305 305 296 289 287 286 284 292 296 300 300 299 302 302 304 306 303
238 252 260 250 248 278 297 294 294 307 285 223 212 173 165 337 323 300 311 329 324 315 301 300 296 295 303 309 317 308 299 296 291 288 289 287 285 285 285 292 299 299 300 298
236 236 235 229 252 262 293 342 6 310 276 146 137 180 306 322 302 296 321 315 308 306 303 307 315 311 307 320 321 311 306 303 301 301 299 294 288 283 280 280 283 286 289 288
193 227 227 240 254 262 274 57 101 251 297 149 173 283 293 285 277 293 300 295 300 307 319 324 318 321 317 325 324 313 310 307 306 304 300 296 292 287 285 283 282 284 286 285
230 245 226 239 260 271 66 111 226 286 148 227 289 303 289 286 288 289 293 298 320 332 336 338 328 317 319 326 326 314 308 313 312 309 303 299 296 294 291 289 287 285 283 281
241 238 263 235 253 259 189 249 249 266 274 285 294 294 291 285 281 291 299 320 323 324 322 325 322 313 310 319 320 310 308 313 311 309 305 302 300 295 292 290 288 286 283 278
262 256 254 255 250 257 269 270 267 274 276 281 291 292 280 270 290 298 302 304 309 308 315 321 319 311 307 315 313 307 308 311 309 305 304 303 300 298 294 289 286 284 282 279
249 269 253 257 259 266 263 263 264 266 269 273 322 256 262 267 269 291 300 307 308 313 316 319 313 306 306 311 309 309 308 309 306 304 302 300 297 296 294 289 286 283 279 277
245 251 258 261 263 264 270 278 284 285 283 276 220 200 181 212 278 296 294 307 311 312 314 310 306 303 302 304 305 307 309 309 306 303 301 298 297 294 292 291 289 285 285 285